Location: Lombard
(41.8800°N, 88.0080°W)
Time: 19:01:35
(UTC-05:00)

Transit 2A - Pass Details

Date: 14 February 2023
Orbit: 591 x 964 km, 66.7° (Epoch: 29 March)

Event Time Altitude Azimuth Distance (km) Brightness Sun altitude
Rises 12:28:04 0° 149° (SSE) 2,988 9.7 35.0°
Reaches altitude 10° 12:32:47 10° 106° (ESE) 2,190 8.6 34.9°
Maximum altitude 12:33:20 10° 100° (E) 2,192 8.5 34.8°
Drops below altitude 10° 12:33:54 10° 93° (E) 2,219 8.5 34.8°
Sets 12:38:59 0° 52° (NE) 3,280 8.9 34.7°
